Weather History for KBMQ - January, 2014

Change the Weather History Date:

Tuesday, January 28, 2014

  Actual Average Record
Temperature  
Mean Temperature 30 °F -  
Max Temperature 37 °F 58 °F 79 °F (2015)
Min Temperature 23 °F 38 °F 23 °F (2014)
Degree Days  
Heating Degree Days 35    
Moisture  
Dew Point 10 °F    
Average Humidity 47    
Maximum Humidity 75    
Minimum Humidity 28    
Precipitation  
Precipitation 0.01 in - - ()
Sea Level Pressure  
Sea Level Pressure 30.38 in    
Wind  
Wind Speed 10 mph (North)    
Max Wind Speed 15 mph    
Max Gust Speed 22 mph    
Visibility 10 miles    
Events Rain    
Averages and records for this station are not official NWS values.
T = Trace of Precipitation, MM = Missing Value Source: NWS Daily Summary

Daily Weather History Graph

Daily Weather History Graph

Search for Another Location

Airport or City:

Trip Planner

Search our weather history database for the weather conditions in past years. The results will help you decide how hot, cold, wet, or windy it might be!

Date:

Astronomy

Jan. 28, 2014 Rise Set
Actual Time 7:26 AM CST 6:05 PM CST
Civil Twilight 7:01 AM CST 6:30 PM CST
Nautical Twilight 6:32 AM CST 7:00 PM CST
Astronomical Twilight 6:03 AM CST 7:28 PM CST
Moon 5:07 AM CST (1/28) 3:59 PM CST (1/28)
Length of Visible Light 11h 29m
Length of Day
10h 38m
Waning Crescent, 7% of the Moon is Illuminated
Jan 28
Waning Crescent
Jan 30
New
Feb 6
First Quarter
Feb 14
Full
Feb 22
Last Quarter

Hourly Weather History & Observations

Time (CST) Temp. Windchill Dew Point Humidity Pressure Visibility Wind Dir Wind Speed Gust Speed Precip Events Conditions
12:53 AM 28.9 °F 21.1 °F 12.9 °F 51% 30.27 in 10.0 mi North 8.1 mph - 0.00 in   Overcast
1:53 AM 27.0 °F 16.7 °F 17.1 °F 66% 30.28 in 9.0 mi North 11.5 mph - 0.00 in   Overcast
2:53 AM 26.1 °F 14.0 °F 19.0 °F 75% 30.29 in 6.0 mi North 15.0 mph 21.9 mph 0.00 in Rain Light Freezing Rain
3:49 AM 26.6 °F 17.5 °F 17.6 °F 69% 30.26 in 10.0 mi North 9.2 mph - 0.01 in   Overcast
3:53 AM 26.1 °F 17.6 °F 18.0 °F 71% 30.28 in 10.0 mi North 8.1 mph - 0.01 in   Overcast
4:53 AM 26.1 °F 17.6 °F 16.0 °F 66% 30.29 in 9.0 mi North 8.1 mph - 0.00 in   Overcast
5:53 AM 25.0 °F 14.8 °F 12.9 °F 60% 30.32 in 8.0 mi North 10.4 mph 19.6 mph 0.00 in   Overcast
6:53 AM 24.1 °F 13.7 °F 10.9 °F 57% 30.35 in 10.0 mi North 10.4 mph - 0.00 in   Overcast
7:53 AM 23.0 °F 14.7 °F 10.0 °F 58% 30.38 in 10.0 mi North 6.9 mph - 0.00 in   Overcast
8:53 AM 24.1 °F 13.1 °F 8.1 °F 51% 30.42 in 10.0 mi North 11.5 mph 18.4 mph N/A   Scattered Clouds
9:53 AM 24.1 °F 12.5 °F 7.0 °F 48% 30.45 in 10.0 mi North 12.7 mph - N/A   Overcast
10:53 AM 25.0 °F 13.6 °F 8.1 °F 49% 30.46 in 10.0 mi North 12.7 mph 19.6 mph N/A   Overcast
11:53 AM 28.9 °F 18.2 °F 10.9 °F 47% 30.45 in 10.0 mi North 13.8 mph 19.6 mph N/A   Scattered Clouds
12:53 PM 32.0 °F 23.6 °F 10.9 °F 42% 30.41 in 10.0 mi North 10.4 mph 21.9 mph N/A   Clear
1:53 PM 34.0 °F 25.5 °F 9.0 °F 35% 30.39 in 10.0 mi NNE 11.5 mph 19.6 mph N/A   Clear
2:53 PM 36.0 °F 27.5 °F 9.0 °F 33% 30.38 in 10.0 mi North 12.7 mph 18.4 mph N/A   Clear
3:53 PM 37.0 °F 29.3 °F 7.0 °F 29% 30.39 in 10.0 mi North 11.5 mph 20.7 mph N/A   Clear
4:53 PM 37.0 °F 29.8 °F 6.1 °F 28% 30.39 in 10.0 mi North 10.4 mph 20.7 mph N/A   Clear
5:53 PM 35.1 °F 27.4 °F 6.1 °F 30% 30.41 in 10.0 mi North 10.4 mph - N/A   Clear
6:53 PM 33.1 °F 28.7 °F 6.1 °F 32% 30.43 in 10.0 mi North 4.6 mph - N/A   Clear
7:53 PM 30.9 °F 25.2 °F 6.1 °F 35% 30.44 in 10.0 mi North 5.8 mph - N/A   Clear
8:53 PM 30.9 °F 23.5 °F 6.1 °F 35% 30.45 in 10.0 mi North 8.1 mph - N/A   Clear
9:53 PM 30.9 °F 23.5 °F 6.1 °F 35% 30.47 in 10.0 mi North 8.1 mph - N/A   Clear
10:53 PM 28.9 °F 25.2 °F 7.0 °F 40% 30.48 in 10.0 mi NNW 3.5 mph - N/A   Clear
11:53 PM 28.0 °F - 8.1 °F 43% 30.47 in 10.0 mi Calm Calm - N/A   Clear